Regional Weather Roundup
Issued by NWS

Home | Current Version | Previous Version | Graphics & Text | Print | Product List | Glossary On
Versions: 1 2 3 4 5 6 7 8 9 10 11 12 13 14 15 16 17 18 19 20 21 22 23 24 25 26 27 28 29 30 31 32 33 34 35 36 37 38 39 40 41 42 43 44 45 46 47 48 49 50
000
ASUS43 KLOT 190708
RWRIL

ILLINOIS REGIONAL WEATHER ROUNDUP
NATIONAL WEATHER SERVICE CHICAGO/ROMEOVILLE IL
200 AM CDT SUN APR 19 2015

NOTE: "FAIR" INDICATES FEW OR NO CLOUDS BELOW 12,000 FEET WITH NO
SIGNIFICANT WEATHER AND/OR OBSTRUCTIONS TO VISIBILITY.

* THESE STATIONS ARE NOT UNDER NWS QUALITY CONTROL. THEY ALSO MAY NOT
  REPORT WEATHER SUCH AS PRECIPITATION OR FOG.

ILZ001-002-007-009-015-016-024-190800-
NORTHWEST ILLINOIS

CITY           SKY/WX    TMP DP  RH WIND       PRES   REMARKS
MOLINE         CLOUDY    54  37  52 E10       29.86S
STERLING*      CLOUDY    54  37  54 E12       29.89F
SAVANNA*       CLOUDY    55  35  48 E14G20    29.88F
$$

ILZ003-004-008-010-011-017-018-190800-
NORTH CENTRAL ILLINOIS

CITY           SKY/WX    TMP DP  RH WIND       PRES   REMARKS
ROCKFORD       CLOUDY    54  35  48 E10       29.93F
FREEPORT*      CLOUDY    50  37  59 E10       29.91F
ROCHELLE*      CLOUDY    54  39  58 E15       29.90F
DE KALB*       CLOUDY    52  34  50 E14       29.92F
PERU*          CLOUDY    55  41  59 E9        29.90S
$$

ILZ005-006-012>014-019>023-190800-
NORTHEAST ILLINOIS

CITY           SKY/WX    TMP DP  RH WIND       PRES   REMARKS
CHICAGO-OHARE  CLOUDY    55  27  34 E9        29.93F
CHICAGO-MIDWAY CLOUDY    55  32  41 E6        29.93F
AURORA         CLOUDY    56  34  43 E10       29.92F
LANSING*       MOCLDY    57  21  24 SE13      29.94F
JOLIET*        CLOUDY    57  36  45 SE10      29.92F
WAUKEGAN       CLOUDY    45  34  65 NE7       29.96F
DUPAGE AIRPORT CLOUDY    54  34  46 E7        29.92F
KANKAKEE*      CLOUDY    57  37  47 E14       29.92F
WHEELING       CLOUDY    51  35  54 E5        29.96F
MORRIS*        CLOUDY    58  35  43 SE15      29.88F
ROMEOVILLE*    CLOUDY    55  30  37 E10       29.92F
NORTHERLY ISL    N/A     51  35  54 NE6         N/A
$$

LMZ740>746-190800-
SOUTHERN LAKE MICHIGAN

STATION/POSITION SKY/WX   TEMP    WIND        PRES    VSBY  WAVE
                          AIR SEA DIR/SP/G                  HT/PER
                          (F)     (DEG/KT/KT) (MB)    (MI)  (FT/S)
HARRISON CRIB              47      60/  4/  6   N/A
BURNHAM HARBOR             50      50/  5/  6   N/A
CALUMET HARBOR                     70/  5/  6   N/A
BURNS HARBOR               59     120/ 15/ 21 1015.2F
MICHIGAN CITY              58      80/ 12/ 18   N/A
MICHIGAN CITY 6N           54 45  130/ 14/ 21   N/A           3/ 6
$$

ILZ025>027-034>036-040-047-049-050-058-095>099-190800-
WEST-CENTRAL ILLINOIS

CITY           SKY/WX    TMP DP  RH WIND       PRES   REMARKS
QUINCY         MOCLDY    60  56  86 NE6       29.81F
GALESBURG*     CLOUDY    59  46  62 E9        29.84F
MACOMB*        CLOUDY    61  50  67 W10       29.85F
JACKSONVILLE*  MOCLDY    60  51  71 E7        29.82S
PITTSFIELD*    MOCLDY    63  53  68 CALM      29.82F
$$

ILZ028>032-037-038-041>044-048-051>054-059>061-190800-
CENTRAL ILLINOIS

CITY           SKY/WX    TMP DP  RH WIND       PRES   REMARKS
PONTIAC        MOCLDY    55  46  71 E14       29.90S
BLOOMINGTON    PTCLDY    53  45  74 E9        29.88F
DECATUR        CLOUDY    57  49  74 E8        29.84F
PEORIA         MOCLDY    58  43  57 E13       29.85F
LACON*         MOCLDY    51  39  62 CALM      29.87F
LINCOLN*       MOCLDY    60  50  69 NE6       29.83F
SPRINGFIELD    PTCLDY    61  47  59 E5        29.83F
TAYLORVILLE    PTCLDY    61  46  59 E7        29.82F
$$

ILZ033-039-045-046-055>057-062-063-190800-
EAST-CENTRAL ILLINOIS

CITY           SKY/WX    TMP DP  RH WIND       PRES   REMARKS
CHAMPAIGN      MOCLDY    59  50  72 NE13      29.86F
DANVILLE*      MOCLDY    58  50  73 E9        29.87S
RANTOUL*       PTCLDY    57  51  78 E9        29.88F
MATTOON        CLOUDY    66  46  48 SE9       29.84F
PARIS*         CLOUDY    61  51  68 E7        29.87S
$$

ILZ079-100>102-190800-
SOUTHWEST ILLINOIS

CITY           SKY/WX    TMP DP  RH WIND       PRES   REMARKS
ALTON          MOCLDY    64  51  62 E6        29.79F
BELLEVILLE     MOCLDY    62  58  85 CALM      29.77F
CAHOKIA*       PTCLDY    60  56  86 CALM      29.78F
SPARTA*        MOCLDY    64  55  75 CALM      29.79F
$$

ILZ064>066-069>071-074>076-080>082-084>086-088>090-092>094-190800-
SOUTH-CENTRAL ILLINOIS

CITY           SKY/WX    TMP DP  RH WIND       PRES   REMARKS
CARBONDALE     CLOUDY    64  56  75 E6        29.76F
CAIRO*         LGT RAIN  66  62  88 SE6       29.76F
EFFINGHAM*     MOCLDY    65  44  47 E7        29.84F
MARION         CLOUDY    68  54  60 E7        29.78F
MT. VERNON     CLOUDY    64  48  55 E7        29.80F
CENTRALIA*     MOCLDY    64  49  56 E6        29.78F
SALEM*         MOCLDY    68  48  48 E5        29.80F
METROPOLIS*    LGT RAIN  67  60  78 E5        29.77F
$$

ILZ067-068-072-073-078-083-087-091-190800-
SOUTHEAST ILLINOIS

CITY           SKY/WX    TMP DP  RH WIND       PRES   REMARKS
LAWRENCEVILLE  MOCLDY    65  48  54 E8        29.83F
FLORA*         MOCLDY    65  47  53 E5        29.81F
FAIRFIELD*     CLOUDY    66  49  54 E8        29.79F
HARRISBURG*    CLOUDY    68  54  61 E12       29.80F
ROBINSON*      CLOUDY    61  49  66 E7        29.85F
CARMI*         CLOUDY    64  51  62 CALM      29.80F
$$

ABBREVIATIONS USED IN REMARKS
   TC - TEMPERATURE IN CELSIUS
  WCI - WIND CHILL INDEX
   HX - HEAT INDEX
  VSB - VISIBILITY
$$




USA.gov is the U.S. government's official web portal to all federal, state and local government web resources and services.